Location: Unspecified
(0.0000°N, 0.0000°E)
Time: 04:07:19
(UTC+01:00)

Cosmos 1072 Rocket - Visible Passes

Search period start: 20 December 2014 00:00
Search period end: 30 December 2014 00:00
Orbit: 948 x 1010 km, 82.9° (Epoch: 18 December)

Date Brightness Start Highest point End Pass type
(mag) Time Alt. Az. Time Alt. Az. Time Alt. Az.
20 Dec 6.4 21:19:17 10° SSE 21:20:45 17° SSE 21:20:45 17° SSE visible
21 Dec 6.2 21:45:12 10° S 21:47:31 25° S 21:47:31 25° S visible
22 Dec 6.4 20:29:03 10° SE 20:29:34 11° SE 20:29:34 11° SE visible
22 Dec 6.5 22:12:04 10° SSW 22:14:20 22° SW 22:14:20 22° SW visible
23 Dec 5.7 20:53:19 10° SSE 20:56:24 26° SE 20:56:24 26° SE visible
23 Dec 7.1 22:40:20 10° SW 22:41:11 12° WSW 22:41:11 12° WSW visible
24 Dec 5.1 21:19:04 10° S 21:23:17 46° S 21:23:17 46° S visible
25 Dec 6.2 20:03:38 10° ESE 20:05:26 13° ESE 20:05:26 13° ESE visible
25 Dec 5.6 21:45:46 10° SSW 21:50:13 38° WSW 21:50:13 38° WSW visible
26 Dec 5.2 20:27:23 10° SSE 20:32:25 31° E 20:32:25 31° E visible
26 Dec 6.6 22:13:43 10° SW 22:17:13 19° W 22:17:13 19° W visible
27 Dec 4.3 20:52:57 10° S 20:59:05 73° E 20:59:27 70° ENE visible
28 Dec 6.1 19:38:35 10° ESE 19:40:15 11° E 19:41:45 10° E visible
28 Dec 5.1 21:19:30 10° SSW 21:25:24 50° W 21:26:33 45° NW visible
29 Dec 5.3 20:01:30 10° SSE 20:06:36 28° E 20:08:54 22° ENE visible
29 Dec 6.4 21:47:10 10° SW 21:51:43 22° W 21:53:42 19° WNW visible
